Flag for Canada Weather past 2 weeks in Coral Harbour, Nunavut Territory, Canada

Now
50 °F

Partly sunny.


Feels Like: 42 °F
Forecast: 45 / 59 °F
Wind: 30 mph from Northeast

Location: Coral Harbour

Current Time: Jul 23, 2014 at 10:19:02 PM

Latest Report: Jul 23, 2014 at 9:00 PM


Visibility: 15 mi

Pressure: 29.69 "Hg

Humidity: 76%

Dew point: 43 °F

Location of Coral HarbourLocation

Historic Weather in Coral Harbour — Graph

°F

Coral Harbour temperature yesterday

Maximum temperature yesterday: 55 °F (at 6:00 PM)
Minimum temperature yesterday: 45 °F (at 1:00 AM)
Average temperature yesterday: 50 °F

Past Weeks' High & Low Weather Summary

 TemperatureHumidityPressure
High68 °F (Jul 13, 11:00 AM)100% (Jul 8, 9:00 PM)30.22 "Hg (Jul 8, 9:00 PM)
Low41 °F (Jul 10, 4:00 AM)35% (Jul 13, 1:00 PM)29.36 "Hg (Jul 17, 6:00 PM)
Average52 °F73%29.77 "Hg
* Reported Jul 8 9:00 PM — Jul 23 9:00 PM, Coral Harbour, Weather by CustomWeather, © 2014

Note: Actual official high and low records may vary slightly from our data, if they occured in-between our weather recording intervals... More about our weather records

Advertising

Coral Harbour weather history for previous 24 hours

 ConditionsComfort  
Time TempWeatherWind HumidityBarometerVisibility
9:00 PM
Jul 23
50 °FPartly sunny.30 mph76%29.69 "Hg15 mi
8:00 PM50 °FPartly sunny.37 mph76%29.69 "Hg15 mi
7:00 PM50 °FPartly sunny.39 mph76%29.66 "Hg15 mi
6:00 PM50 °FPartly sunny.40 mph71%29.65 "Hg15 mi
5:00 PM50 °FPartly sunny.41 mph71%29.65 "Hg15 mi
4:00 PM52 °FLight rain. Partly sunny.38 mph67%29.69 "Hg15 mi
3:00 PM52 °FMostly cloudy.31 mph67%29.70 "Hg15 mi
2:00 PM54 °FPartly sunny.35 mph58%29.67 "Hg15 mi
1:00 PM54 °FPartly sunny.39 mph63%29.67 "Hg15 mi
12:00 PM55 °FPartly sunny.40 mph59%29.67 "Hg15 mi
11:00 AM55 °FPartly sunny.37 mph59%29.69 "Hg15 mi
10:00 AM57 °FScattered clouds.24 mph55%29.70 "Hg15 mi
9:00 AM57 °FPartly sunny.26 mph55%29.71 "Hg15 mi
8:00 AM54 °FPassing clouds.30 mph63%29.71 "Hg15 mi
7:00 AM52 °FPassing clouds.29 mph67%29.72 "Hg15 mi
6:00 AM50 °FScattered clouds.25 mph71%29.73 "Hg15 mi
5:00 AM48 °FScattered clouds.20 mph71%29.75 "Hg15 mi
4:00 AM46 °FScattered clouds.16 mph76%29.75 "Hg15 mi
3:00 AM45 °FPassing clouds.10 mph81%29.77 "Hg15 mi
12:00 AM48 °FPassing clouds.15 mph71%29.77 "Hg15 mi
11:00 PM
Jul 22
52 °FOvercast.14 mph62%29.78 "Hg15 mi
10:00 PM52 °FOvercast.20 mph62%29.79 "Hg15 mi
Weather by CustomWeather, © 2014

See weather overviewHow to use our weather pages